This is the latest recevied weather packets stored in our database for station/object PD2BVG. If no packets are shown the sender has not sent any weather packets the latest 10 day(s).
| Time | Temp. | Humidity | Pressure | Rain* | Wind** | Luminosity | Snow |
|---|---|---|---|---|---|---|---|
| 1787924273 | 15.56° C | 97% | 1008.6 hPa | 6.35 mm | - | 16 W/m² | - |
| 1787924213 | 15.56° C | 97% | 1008.6 hPa | 6.35 mm | - | 16 W/m² | - |
| 1787924153 | 15.56° C | 97% | 1008.6 hPa | 6.86 mm | - | 16 W/m² | - |
| 1787924094 | 15.56° C | 97% | 1008.6 hPa | 6.86 mm | - | 16 W/m² | - |
| 1787924033 | 15.56° C | 97% | 1008.6 hPa | 6.6 mm | - | 16 W/m² | - |
| 1787923974 | 15.56° C | 97% | 1008.6 hPa | 6.6 mm | - | 16 W/m² | - |
| 1787923913 | 15.56° C | 97% | 1008.5 hPa | 6.6 mm | - | 16 W/m² | - |
| 1787923853 | 15.56° C | 97% | 1008.6 hPa | 6.6 mm | - | 16 W/m² | - |
| 1787923793 | 16.11° C | 97% | 1008.5 hPa | 6.35 mm | - | 16 W/m² | - |
| 1787923734 | 16.11° C | 96% | 1008.4 hPa | 6.1 mm | - | 16 W/m² | - |
| 1787923673 | 16.11° C | 96% | 1008.4 hPa | 6.1 mm | - | 16 W/m² | - |
| 1787923614 | 16.11° C | 96% | 1008.4 hPa | 6.1 mm | - | 16 W/m² | - |
| 1787923553 | 16.11° C | 96% | 1008.3 hPa | 5.59 mm | - | 14 W/m² | - |
| 1787923490 | 16.67° C | 96% | 1008.4 hPa | 5.33 mm | - | 14 W/m² | - |
| 1787923429 | 16.67° C | 96% | 1008.3 hPa | 4.83 mm | - | 12 W/m² | - |
| 1787923368 | 16.67° C | 96% | 1008.3 hPa | 4.32 mm | - | 11 W/m² | - |
| 1787923308 | 16.67° C | 97% | 1008.3 hPa | 4.06 mm | - | 9 W/m² | - |
| 1787923248 | 17.22° C | 97% | 1008.1 hPa | 3.3 mm | - | 5 W/m² | - |
| 1787923188 | 17.22° C | 97% | 1008.2 hPa | 2.54 mm | - | 0 W/m² | - |
| 1787923128 | 17.22° C | 97% | 1008.1 hPa | 1.52 mm | - | 0 W/m² | - |
| 1787923065 | 17.22° C | 97% | 1008 hPa | 1.52 mm | - | 0 W/m² | - |
| 1787923004 | 17.22° C | 97% | 1008.2 hPa | 1.52 mm | - | 0 W/m² | - |
| 1787922942 | 17.22° C | 97% | 1008.1 hPa | 1.52 mm | - | 0 W/m² | - |
| 1787922880 | 17.22° C | 97% | 1008.1 hPa | 1.52 mm | - | 11 W/m² | - |
| 1787922819 | 17.22° C | 97% | 1008.1 hPa | 1.52 mm | - | 14 W/m² | - |
* Rain latest hour (hover to see other rain measurements)
** Current wind speed in m/s (hover to see current wind gust speed)